STARLINK-2231 (48577 NORAD) Tracking and Keplerian Element Data

This shows tracking and keplerian element data for the satellite.

Feedback or suggestion? Click here.




ElementValue
Catalog48577
NameSTARLINK-2231
Epoch Orbit1132
Epoch Day210.31132264
Epoch Year2021
RAAN133.0972
Inclination53.0557
Eccentricity0.0002134
Argument of Perigee79.1515
Mean Anonmoly280.9714
Mean Motion15.06400831
Decay Rate1.601E-05
L11 48577U 21041AA 21210.31132264 .00001601 00000-0 12638-3 0 9998
L22 48577 53.0557 133.0972 0002134 79.1515 280.9714 15.06400831 11327

Live tracking and technical data element details for STARLINK-2231 (NORAD 48577). STARLINK-2231 can be tracked NOW for your location showing map with azimuth and elevation plus other details from your city location.

Track the satellite on the map from your city or location and see movement details for azimuth, elevation, latitude, longitude, range, height, and movement on the map or in text.







IsCatalogInMostPopularTable: catalog: 48577, numindb: 19
Update: records affected: 1



GetName: 48577 STARLINK-2231

Hit Count: updated at: Sat, 31 Jul 2021 15:16:01 GMT